FW0772 Weather Reports


Display with metric or nautical units.
time (UTC)temp
F
wind
direction
speed
MPH
gust
MPH
rain 1hr
in
rain 24hr
in
rain mn
in
humidity
%
barometer
mb
20181118034546 20 71 0.0 0.0 0.00 0.01 0.00 96 1035.3
20181118033023 19 71 0.0 0.0 0.00 0.01 0.00 95 1035.6
20181118031530 18 71 0.0 0.0 0.00 0.01 0.00 95 1035.7
20181118030015 19 71 0.0 0.0 0.00 0.01 0.00 95 1035.6
20181118024521 19 71 0.0 0.0 0.00 0.01 0.00 95 1035.8
20181118023020 19 71 0.0 0.0 0.00 0.01 0.00 95 1036.0
20181118021507 19 71 0.0 0.0 0.00 0.01 0.00 95 1036.2
20181118020006 19 71 0.0 0.0 0.00 0.01 0.00 95 1036.3
20181118014503 19 71 0.0 0.0 0.00 0.01 0.00 95 1036.6
20181118013002 20 71 0.0 0.0 0.00 0.01 0.00 95 1036.7
20181118011654 19 71 0.0 0.0 0.00 0.01 0.00 95 1036.8
20181118010202 19 71 0.0 0.0 0.00 0.01 0.00 95 1037.0
20181118004700 19 71 0.0 0.0 0.00 0.01 0.00 95 1037.1
20181118003207 20 71 0.0 0.0 0.00 0.01 0.00 95 1037.2
20181118001700 19 71 0.0 0.0 0.00 0.01 0.00 95 1037.1
20181118000129 20 71 0.0 0.0 0.00 0.01 0.00 95 1037.4
20181117234703 20 71 0.0 0.0 0.00 0.01 0.00 95 1037.7
20181117233223 20 71 0.0 0.0 0.00 0.01 0.00 95 1037.8
20181117231628 20 71 0.0 0.0 0.00 0.01 0.00 95 1037.8
20181117230150 20 71 0.0 0.0 0.00 0.01 0.00 95 1037.8
20181117224607 21 71 0.0 0.0 0.00 0.01 0.01 95 1037.8
20181117223115 21 71 0.0 0.0 0.00 0.01 0.01 95 1037.9
20181117221627 21 71 0.0 0.0 0.00 0.01 0.01 95 1037.9
20181117220157 22 71 0.0 0.0 0.00 0.01 0.01 95 1038.1
20181117214630 22 71 0.0 0.0 0.00 0.01 0.01 95 1038.3
20181117213120 22 71 0.0 0.0 0.00 0.01 0.01 95 1038.3
20181117211626 23 71 0.0 0.0 0.00 0.01 0.01 95 1038.4
20181117210116 23 71 0.0 0.0 0.00 0.01 0.01 95 1038.4
20181117204648 23 71 0.0 0.0 0.00 0.01 0.01 95 1038.4
20181117203057 23 71 0.0 0.0 0.00 0.01 0.01 95 1038.6
20181117201603 23 71 0.0 0.0 0.00 0.01 0.01 95 1038.6
20181117200034 23 71 0.0 0.0 0.00 0.01 0.01 95 1038.4
20181117194540 24 71 0.0 0.0 0.00 0.01 0.01 95 1038.4
20181117193049 24 71 0.0 0.0 0.00 0.01 0.01 95 1038.5
20181117191525 25 71 0.0 0.0 0.00 0.01 0.01 95 1038.5
20181117190035 25 71 0.0 0.0 0.00 0.01 0.01 95 1038.7
20181117184526 26 71 0.0 0.0 0.00 0.01 0.01 94 1038.7
20181117183040 26 71 0.0 0.0 0.00 0.01 0.01 94 1038.8
20181117181532 26 71 0.0 0.0 0.00 0.01 0.01 94 1038.8
20181117180029 26 71 0.0 0.0 0.00 0.01 0.01 94 1038.9
20181117174557 27 71 0.0 0.0 0.00 0.01 0.01 93 1039.0
20181117171513 28 71 0.0 0.0 0.00 0.01 0.01 92 1039.0
20181117170013 29 71 0.0 0.0 0.00 0.01 0.01 92 1038.9
20181117164515 30 71 0.0 0.0 0.00 0.01 0.01 91 1039.4
20181117163015 31 71 0.0 0.0 0.00 0.01 0.01 91 1039.5
20181117161523 31 71 0.0 0.0 0.00 0.01 0.01 90 1039.6
20181117160036 33 71 0.0 0.0 0.00 0.01 0.01 89 1039.4
20181117154509 34 71 0.0 0.0 0.00 0.01 0.01 87 1039.4
20181117153025 35 71 0.0 0.0 0.00 0.01 0.01 84 1039.3
20181117151525 37 71 0.0 0.0 0.00 0.01 0.01 81 1039.4
20181117150006 38 71 0.0 0.0 0.00 0.01 0.01 79 1039.5
20181117144505 40 71 0.0 0.0 0.00 0.01 0.01 75 1039.8
20181117143008 41 71 0.0 3.0 0.00 0.01 0.01 73 1040.0
20181117141509 42 55 1.0 5.0 0.00 0.01 0.01 72 1040.1
20181117140011 42 82 1.0 5.0 0.00 0.01 0.01 71 1039.9
20181117134520 43 88 0.0 3.0 0.00 0.01 0.01 70 1039.5
20181117133003 43 98 2.0 5.0 0.00 0.01 0.01 69 1039.6
20181117131501 43 86 2.0 5.0 0.00 0.01 0.01 68 1039.7
20181117130001 43 90 2.0 7.0 0.00 0.01 0.01 68 1039.7
20181117124630 43 80 2.0 5.0 0.00 0.01 0.01 67 1039.7
20181117123131 43 92 2.0 5.0 0.00 0.01 0.01 69 1039.6
20181117121737 43 108 2.0 4.0 0.00 0.01 0.01 65 1039.7
20181117120201 43 128 1.0 6.0 0.00 0.01 0.01 65 1039.8
20181117114630 42 102 2.0 6.0 0.00 0.01 0.01 68 1039.9
20181117113140 42 89 2.0 4.0 0.00 0.01 0.01 70 1040.0
20181117111625 42 123 1.0 6.0 0.00 0.01 0.01 75 1040.2
20181117110116 41 137 0.0 5.0 0.00 0.01 0.01 78 1040.2
20181117104601 40 95 2.0 4.0 0.00 0.01 0.01 81 1040.3
20181117103202 40 112 3.0 6.0 0.00 0.01 0.01 83 1040.5
20181117101629 39 91 2.0 6.0 0.00 0.01 0.01 85 1040.3
20181117100106 38 108 1.0 4.0 0.00 0.01 0.01 86 1040.2
20181117094611 38 117 0.0 7.0 0.00 0.01 0.01 87 1040.4
20181117093101 37 103 1.0 8.0 0.00 0.01 0.01 88 1040.4
20181117091550 37 57 1.0 8.0 0.00 0.01 0.01 88 1040.5
20181117090036 36 97 2.0 5.0 0.01 0.01 0.01 90 1040.5
20181117084621 36 118 2.0 4.0 0.01 0.01 0.01 91 1040.4
20181117083057 35 76 1.0 2.0 0.01 0.01 0.01 95 1040.5
20181117081628 35 76 0.0 1.0 0.01 0.01 0.01 97 1040.4
20181117080047 32 76 0.0 1.0 0.00 0.00 0.00 97 1040.5
20181117074530 31 65 0.0 2.0 0.00 0.00 0.00 97 1040.5
20181117073033 30 82 0.0 3.0 0.00 0.00 0.00 97 1040.6
20181117071545 29 81 1.0 3.0 0.00 0.00 0.00 97 1040.6
20181117070037 29 46 0.0 3.0 0.00 0.00 0.00 97 1040.6
20181117064518 29 86 0.0 2.0 0.00 0.00 0.00 96 1040.5
20181117063022 29 79 0.0 3.0 0.00 0.00 0.00 96 1040.5
20181117060010 28 32 0.0 2.0 0.00 0.00 0.00 95 1040.1
20181117054509 27 90 0.0 0.0 0.00 0.00 0.00 94 1040.0
20181117053007 28 90 0.0 0.0 0.00 0.00 0.00 94 1039.8
20181117051503 29 90 0.0 0.0 0.00 0.00 0.00 93 1039.8
20181117050133 30 90 0.0 1.0 0.00 0.00 0.00 93 1039.6
20181117044615 31 90 0.0 1.0 0.00 0.00 0.00 93 1039.6
20181117043202 32 84 0.0 2.0 0.00 0.00 0.00 93 1039.5
20181117041618 32 99 0.0 4.0 0.00 0.00 0.00 93 1039.5
20181117040101 32 111 1.0 4.0 0.00 0.00 0.00 93 1039.7